Wetbulb
50.73 50.19 50.17 50.31 49.71 49.03 48.72 48.70 49.05 48.94 48.64 48.26 48.16 48.11 47.73 47.09 46.83 46.86 46.38 45.79 45.29 44.72
50.56 49.82 49.59 50.27 50.67 50.05 49.99 49.17 49.46 48.84 48.36 48.21 47.85 47.42 47.21 46.17 45.71 46.03 45.81 45.32 45.58 44.62
50.27 50.11 50.02 50.40 49.68 49.61 49.95 49.53 48.81 48.45 48.12 47.62 47.19 46.88 46.54 45.98 45.97 45.52 45.61 45.50 44.74 44.63
50.09 49.98 50.10 49.60 49.67 49.63 49.67 49.08 48.28 47.55 47.20 46.73 46.23 46.28 45.75 45.59 45.23 44.72 44.81 45.17 44.62 44.11
50.17 49.71 49.46 49.23 49.11 49.36 48.94 49.03 48.21 47.53 46.84 46.44 46.18 46.08 45.28 44.67 44.61 44.17 43.89 44.24 43.97 43.70
49.28 49.12 48.92 49.09 48.87 48.68 48.66 48.50 48.18 47.63 46.52 46.02 45.94 45.67 45.46 45.01 44.52 44.30 44.12 44.02 43.51 43.28
48.38 48.82 49.11 49.29 48.67 48.07 48.20 47.59 47.77 47.51 46.80 46.40 46.16 45.77 45.46 45.01 44.49 44.15 44.17 44.24 43.78 43.14
47.91 48.72 48.79 48.55 48.33 48.24 47.93 47.64 47.60 47.31 47.00 46.65 45.96 45.52 45.31 44.92 44.48 43.95 43.50 43.76 43.44 43.12
47.23 47.39 48.22 47.91 47.54 47.63 47.64 47.07 47.28 46.74 46.59 46.14 45.47 47.37 47.72 46.10 44.23 44.02 43.41 42.53 42.87 42.89
46.67 46.44 46.97 46.94 46.84 46.70 46.57 47.10 46.56 46.45 46.47 45.83 45.98 48.20 48.46 47.81 44.97 44.05 43.62 43.07 42.72 42.24
46.46 46.01 46.38 46.56 46.37 46.43 46.37 46.10 46.05 46.38 46.46 46.17 45.90 48.48 48.62 48.00 45.38 44.50 44.16 43.87 43.25 42.48
46.67 46.25 46.43 46.19 46.11 46.36 46.02 45.91 45.93 46.31 46.17 45.84 45.59 48.25 48.66 47.45 45.25 44.54 44.34 44.81 44.89 43.75
47.49 46.60 46.27 47.05 47.05 47.17 46.94 46.09 46.02 45.86 46.25 46.88 45.76 47.88 48.53 47.28 45.08 44.21 44.28 45.05 45.22 46.88
47.55 47.20 47.32 47.57 47.66 47.08 46.26 46.18 45.80 45.20 45.31 45.46 45.94 45.88 48.25 48.08 44.85 44.27 43.93 43.77 43.97 44.59
MSLP
1019.97 1020.46 1020.75 1020.96 1021.27 1021.57 1021.78 1022.02 1022.55 1023.00 1023.41 1023.57 1023.77 1024.12 1024.39 1024.56 1024.73 1024.76 1024.85 1024.92 1024.98 1024.97
1019.02 1019.50 1019.58 1019.96 1020.35 1020.65 1020.96 1021.26 1021.69 1022.19 1022.59 1022.91 1023.11 1023.35 1023.80 1024.06 1024.15 1024.29 1024.42 1024.52 1024.57 1024.62
1017.74 1018.20 1018.74 1019.13 1019.43 1019.79 1020.09 1020.61 1020.96 1021.46 1021.88 1022.22 1022.41 1022.77 1023.06 1023.39 1023.53 1023.71 1023.85 1023.99 1024.11 1024.09
1016.73 1017.30 1017.80 1018.22 1018.48 1018.82 1019.34 1019.69 1020.16 1020.63 1021.12 1021.42 1021.72 1021.89 1022.24 1022.38 1022.71 1022.85 1023.02 1023.29 1023.46 1023.55
1016.30 1016.68 1017.07 1017.42 1017.96 1018.32 1018.47 1018.90 1019.21 1019.54 1019.98 1020.49 1020.86 1021.18 1021.33 1021.64 1021.72 1022.05 1022.35 1022.44 1022.63 1022.71
1015.47 1015.97 1016.16 1016.41 1016.97 1017.47 1017.79 1018.07 1018.55 1018.91 1019.26 1019.62 1019.92 1020.21 1020.46 1020.60 1020.98 1021.12 1021.22 1021.63 1021.81 1021.83
1014.73 1015.14 1015.59 1015.83 1016.05 1016.29 1016.63 1017.05 1017.25 1017.71 1018.17 1018.56 1018.98 1019.38 1019.64 1019.83 1019.98 1020.19 1020.41 1020.56 1020.88 1021.14
1014.37 1014.82 1014.95 1015.49 1015.71 1015.93 1015.97 1016.14 1016.54 1016.80 1017.16 1017.61 1017.93 1018.18 1018.50 1018.87 1019.19 1019.36 1019.62 1019.79 1019.86 1020.09
1013.75 1014.20 1014.73 1014.91 1015.34 1015.50 1015.52 1015.76 1015.99 1016.07 1016.10 1016.35 1016.71 1016.93 1017.39 1017.92 1018.29 1018.61 1018.76 1018.94 1019.14 1019.33
1013.46 1013.67 1013.98 1014.09 1014.45 1014.65 1014.87 1015.08 1015.04 1015.23 1015.55 1015.50 1015.74 1016.27 1016.62 1017.06 1017.42 1017.74 1017.91 1018.00 1018.25 1018.56
1013.28 1013.36 1013.63 1013.94 1013.94 1014.01 1014.07 1014.13 1014.30 1014.33 1014.47 1014.76 1015.11 1015.26 1015.60 1016.16 1016.58 1016.62 1016.94 1017.20 1017.29 1017.52
1012.67 1013.10 1013.13 1013.15 1013.26 1013.34 1013.36 1013.24 1013.08 1013.14 1013.34 1013.58 1013.78 1014.26 1014.78 1015.26 1015.61 1015.83 1015.73 1016.03 1016.49 1016.88
1012.31 1012.19 1012.52 1012.75 1012.80 1012.74 1012.66 1012.60 1012.62 1012.34 1012.18 1012.37 1012.70 1013.16 1013.58 1014.27 1014.68 1014.65 1014.63 1014.85 1015.21 1015.69
1011.88 1012.24 1012.24 1012.19 1012.23 1012.32 1012.49 1012.45 1012.31 1012.27 1011.99 1011.70 1011.67 1011.90 1012.48 1013.05 1013.54 1013.62 1013.47 1013.39 1013.77 1014.27
Wind_Speed
17 11 11 12 9 9 9 9 10 10 10 11 10 9 8 6 6 8 7 8 7 5
16 16 14 15 12 9 10 8 10 11 11 11 10 10 9 7 8 8 7 8 8 7
16 16 15 13 14 13 11 12 10 11 11 11 11 10 10 8 9 9 7 6 9 8
14 15 15 14 14 13 13 13 13 13 13 13 12 12 11 12 11 11 10 9 9 10
13 14 15 14 14 13 14 13 14 14 14 13 13 13 13 12 11 12 11 10 10 10
12 13 14 14 13 14 14 14 14 14 14 14 14 14 14 13 12 12 12 11 11 10
12 12 12 12 13 14 14 14 15 15 14 14 14 14 13 13 13 13 12 11 11 11
10 10 11 11 12 12 13 13 14 14 14 13 14 12 15 14 14 13 12 11 11 11
9 10 9 10 11 12 12 13 13 14 15 15 12 19 22 16 13 13 13 12 12 12
8 9 9 10 11 12 12 13 14 14 14 15 15 21 22 23 13 12 13 13 11 10
8 9 9 9 10 10 10 12 12 13 14 14 12 21 23 24 16 13 14 13 13 12
8 8 8 10 10 10 10 11 12 12 14 15 14 20 22 20 15 15 15 13 13 13
6 7 8 9 9 9 10 11 9 12 12 16 14 19 21 20 12 14 11 13 14 20
6 7 7 7 7 8 9 9 10 11 11 12 14 14 19 23 14 12 11 11 10 11
Wind_Direction
211 215 217 216 211 211 216 209 205 207 213 219 219 218 227 232 235 244 242 246 249 257
213 214 215 215 213 216 212 212 212 205 207 214 220 217 216 227 233 234 240 246 240 243
216 216 215 216 212 212 213 211 208 208 209 212 212 218 216 222 231 239 241 239 246 248
220 221 220 217 218 213 210 207 209 207 210 214 214 212 217 217 225 229 231 234 239 247
225 224 225 223 219 217 215 214 211 210 210 212 213 215 217 221 219 223 233 234 236 240
228 227 229 226 221 221 221 217 217 215 214 214 216 214 217 219 222 226 224 230 235 234
227 226 230 231 224 221 219 218 216 213 217 216 216 219 220 220 222 225 228 225 229 237
230 232 223 230 231 233 226 225 225 223 216 218 217 217 216 217 219 221 227 225 221 226
219 224 229 229 233 236 233 228 232 228 224 216 218 219 217 215 216 219 221 224 225 223
223 227 228 219 225 229 231 234 231 231 232 228 222 222 221 217 221 216 220 220 220 224
227 227 229 235 233 233 231 231 236 236 233 235 232 228 221 222 219 222 226 225 220 218
220 233 231 231 233 235 234 234 229 228 231 231 232 227 227 217 220 223 223 223 221 219
233 226 230 241 239 237 235 242 242 241 230 231 237 230 221 216 221 225 222 219 221 218
243 251 256 252 244 244 249 254 250 250 246 238 233 231 228 216 219 228 223 217 214 210